This is the latest recevied weather packets stored in our database for station/object KO4ZGL-13. If no packets are shown the sender has not sent any weather packets the latest 10 day(s).
| Time | Temp. | Humidity | Pressure | Rain* | Wind** | Luminosity | Snow |
|---|---|---|---|---|---|---|---|
| 1788115011 | 30.56° C | 85% | 1020.8 hPa | 0 mm | - | 421 W/m² | - |
| 1788114706 | 30° C | 85% | 1021.1 hPa | 0 mm | - | 314 W/m² | - |
| 1788114401 | 30° C | 85% | 1020.8 hPa | 0 mm | - | 411 W/m² | - |
| 1788114097 | 30° C | 86% | 1021.1 hPa | 0 mm | - | 439 W/m² | - |
| 1788113793 | 30° C | 87% | 1021 hPa | 0 mm | - | 406 W/m² | - |
| 1788113493 | 30° C | 87% | 1020.9 hPa | 0 mm | - | 354 W/m² | - |
| 1788113192 | 29.44° C | 87% | 1021.2 hPa | 0 mm | - | 304 W/m² | - |
| 1788112887 | 28.89° C | 87% | 1021.2 hPa | 0 mm | - | 272 W/m² | - |
| 1788112586 | 29.44° C | 87% | 1021.2 hPa | 0 mm | - | 266 W/m² | - |
| 1788112281 | 30° C | 87% | 1021.1 hPa | 0 mm | - | 279 W/m² | - |
| 1788111977 | 29.44° C | 86% | 1021.3 hPa | 0 mm | - | 297 W/m² | - |
| 1788111672 | 30° C | 87% | 1021.3 hPa | 0 mm | - | 322 W/m² | - |
| 1788111367 | 29.44° C | 88% | 1021.3 hPa | 0 mm | - | 304 W/m² | - |
| 1788111061 | 29.44° C | 89% | 1021.3 hPa | 0 mm | - | 373 W/m² | - |
| 1788110753 | 29.44° C | 90% | 1021.3 hPa | 0 mm | - | 354 W/m² | - |
| 1788110449 | 28.89° C | 90% | 1021.6 hPa | 0 mm | - | 311 W/m² | - |
| 1788110144 | 28.89° C | 90% | 1021.4 hPa | 0 mm | - | 309 W/m² | - |
| 1788109839 | 28.89° C | 90% | 1021.2 hPa | 0 mm | - | 306 W/m² | - |
| 1788109539 | 28.89° C | 90% | 1021.5 hPa | 0 mm | - | 278 W/m² | - |
| 1788109238 | 28.33° C | 91% | 1021.4 hPa | 0 mm | - | 246 W/m² | - |
| 1788108933 | 28.33° C | 92% | 1021.6 hPa | 0 mm | - | 228 W/m² | - |
| 1788108629 | 28.33° C | 92% | 1021.8 hPa | 0 mm | - | 207 W/m² | - |
| 1788108325 | 28.33° C | 92% | 1021.9 hPa | 0 mm | - | 192 W/m² | - |
| 1788108021 | 28.33° C | 92% | 1022.1 hPa | 0 mm | - | 180 W/m² | - |
| 1788107718 | 28.33° C | 92% | 1022 hPa | 0 mm | - | 176 W/m² | - |
* Rain latest hour (hover to see other rain measurements)
** Current wind speed in m/s (hover to see current wind gust speed)